Location: Abundant Grace Fellowship
(35.0349°N, 90.0924°W)
Time: 21:28:46
(UTC+00:00)

Cosmos 1302 Rocket - Pass Details

Date: 18 January 2026
Orbit: 752 x 772 km, 74.0° (Epoch: 10 February)

Event Time Altitude Azimuth Distance (km) Brightness Sun altitude
Rises 00:00:51 0° 197° (SSW) 3,213 7.8 -9.7°
Reaches altitude 10° 00:03:12 10° 198° (SSW) 2,294 7.0 -10.2°
Maximum altitude 00:08:25 85° 287° (WNW) 776 4.1 -11.2°
Drops below altitude 10° 00:13:42 10° 16° (NNE) 2,318 6.2 -12.2°
Sets 00:16:05 0° 17° (NNE) 3,250 6.9 -12.7°
